,,,PA_Meas_PMT16A,,PR_Meas_QMR101_102,,RH_Meas_QMH101,,SR_Meas_QMS101,,TA_Meas_QMH101,,GenWind,,GenWind,
date,time,status,PA,status,PR,status,RH,status,SR,status,TA,status,DirAvg,status,SpdAvg,
2009-08-25, 00:00:04,VALID,1010.59,VALID,0,VALID,94.2238,VALID,0,VALID,24.5515,VALID,113,VALID,0.986328,
2009-08-25, 00:01:04,VALID,1010.55,VALID,0,VALID,94.2848,VALID,0,VALID,24.532,VALID,87,VALID,0.952734,
2009-08-25, 00:02:04,VALID,1010.52,VALID,0,VALID,94.2238,VALID,0,VALID,24.532,VALID,114,VALID,0.95,
2009-08-25, 00:03:04,VALID,1010.5,VALID,0,VALID,94.2543,VALID,0,VALID,24.5106,VALID,117,VALID,0.617578,
2009-08-25, 00:04:04,VALID,1010.47,VALID,0,VALID,94.2619,VALID,0,VALID,24.5106,VALID,104,VALID,0.700391,
2009-08-25, 00:05:04,VALID,1010.43,VALID,0,VALID,94.2696,VALID,0,VALID,24.5106,VALID,100,VALID,1.05078,
2009-08-25, 00:06:04,VALID,1010.38,VALID,0,VALID,94.2619,VALID,0,VALID,24.5106,VALID,131,VALID,0.658984,
2009-08-25, 00:07:04,VALID,1010.38,VALID,0,VALID,94.3153,VALID,0,VALID,24.532,VALID,129,VALID,0.391406,
2009-08-25, 00:08:04,VALID,1010.37,VALID,0,VALID,94.3611,VALID,0,VALID,24.4911,VALID,93,VALID,0.452344,
2009-08-25, 00:09:04,VALID,1010.35,VALID,0,VALID,94.3916,VALID,0,VALID,24.4911,VALID,93,VALID,0.469141,
2009-08-25, 00:10:04,VALID,1010.33,VALID,0,VALID,94.4526,VALID,0,VALID,24.4717,VALID,93,VALID,0.504687,
2009-08-25, 00:11:04,VALID,1010.34,VALID,0,VALID,94.4526,VALID,0.105969,VALID,24.4717,VALID,123,VALID,0.871094,
2009-08-25, 00:12:04,VALID,1010.32,VALID,0,VALID,94.4983,VALID,0,VALID,24.4717,VALID,101,VALID,0.934375,
2009-08-25, 00:13:04,VALID,1010.31,VALID,0,VALID,94.5441,VALID,0,VALID,24.4522,VALID,115,VALID,1.11367,
2009-08-25, 00:14:04,VALID,1010.29,VALID,0,VALID,94.5746,VALID,0,VALID,24.4735,VALID,131,VALID,0.961719,
2009-08-25, 00:15:04,VALID,1010.29,VALID,0,VALID,94.6051,VALID,0,VALID,24.454,VALID,140,VALID,1.36328,
2009-08-25, 00:16:04,VALID,1010.28,VALID,0,VALID,94.6737,VALID,0,VALID,24.3956,VALID,133,VALID,1.19844,
2009-08-25, 00:17:04,VALID,1010.23,VALID,0,VALID,94.7195,VALID,0,VALID,24.3742,VALID,132,VALID,1.48828,
2009-08-25, 00:18:04,VALID,1010.13,VALID,0,VALID,94.7957,VALID,0,VALID,24.3547,VALID,152,VALID,1.15508,
2009-08-25, 00:19:04,VALID,1010.1,VALID,0,VALID,94.8186,VALID,0,VALID,24.3547,VALID,124,VALID,1.06953,
2009-08-25, 00:20:04,VALID,1010.06,VALID,0,VALID,94.8415,VALID,0,VALID,24.3352,VALID,148,VALID,1.075,
2009-08-25, 00:21:04,VALID,1010.02,VALID,0,VALID,94.8873,VALID,0,VALID,24.3158,VALID,135,VALID,0.875,
2009-08-25, 00:22:04,VALID,1009.97,VALID,0,VALID,94.9406,VALID,0,VALID,24.3371,VALID,158,VALID,1.02422,
2009-08-25, 00:23:04,VALID,1009.94,VALID,0,VALID,94.9864,VALID,0,VALID,24.3371,VALID,144,VALID,0.493359,
2009-08-25, 00:24:04,VALID,1009.92,VALID,0,VALID,94.9864,VALID,0,VALID,24.3176,VALID,142,VALID,0.84375,
2009-08-25, 00:25:04,VALID,1009.9,VALID,0,VALID,95.0245,VALID,0,VALID,24.2981,VALID,138,VALID,0.507813,
2009-08-25, 00:26:04,VALID,1009.89,VALID,0,VALID,95.0398,VALID,0,VALID,24.2768,VALID,138,VALID,0.51875,
2009-08-25, 00:27:04,VALID,1009.87,VALID,0,VALID,95.116,VALID,0,VALID,24.2786,VALID,138,VALID,0.331641,
2009-08-25, 00:28:04,VALID,1009.85,VALID,0,VALID,95.1847,VALID,0,VALID,24.2573,VALID,123,VALID,0.528125,
2009-08-25, 00:29:04,VALID,1009.86,VALID,0,VALID,95.2228,VALID,0,VALID,24.2378,VALID,122,VALID,0.227344,
2009-08-25, 00:30:04,VALID,1009.83,VALID,0,VALID,95.2685,VALID,0,VALID,24.2378,VALID,122,VALID,0.235938,
2009-08-25, 00:31:04,VALID,1009.84,VALID,0,VALID,95.2609,VALID,0,VALID,24.2396,VALID,124,VALID,0.495703,
2009-08-25, 00:32:04,VALID,1009.89,VALID,0,VALID,95.36,VALID,0,VALID,24.2183,VALID,124,VALID,0.752344,
2009-08-25, 00:33:04,VALID,1009.89,VALID,0,VALID,95.36,VALID,0,VALID,24.2183,VALID,140,VALID,0.569141,
2009-08-25, 00:34:04,VALID,1009.89,VALID,0,VALID,95.3829,VALID,0.105969,VALID,24.2183,VALID,130,VALID,0.944531,
2009-08-25, 00:35:04,VALID,1009.91,VALID,0,VALID,95.4058,VALID,0.105969,VALID,24.2183,VALID,127,VALID,0.917578,
2009-08-25, 00:36:04,VALID,1009.93,VALID,0,VALID,95.4287,VALID,0,VALID,24.1988,VALID,129,VALID,1.19062,
2009-08-25, 00:37:04,VALID,1009.89,VALID,0,VALID,95.4516,VALID,0,VALID,24.2415,VALID,121,VALID,0.892578,
2009-08-25, 00:38:04,VALID,1009.88,VALID,0,VALID,95.4744,VALID,0,VALID,24.2007,VALID,116,VALID,0.485938,
2009-08-25, 00:39:04,VALID,1009.86,VALID,0,VALID,95.4668,VALID,0,VALID,24.1812,VALID,116,VALID,0.414844,
2009-08-25, 00:40:04,VALID,1009.85,VALID,0,VALID,95.5049,VALID,0,VALID,24.1812,VALID,77,VALID,0.49375,
2009-08-25, 00:41:04,VALID,1009.85,VALID,0,VALID,95.5202,VALID,0,VALID,24.2025,VALID,99,VALID,0.892187,
2009-08-25, 00:42:04,VALID,1009.82,VALID,0,VALID,95.5278,VALID,0,VALID,24.1812,VALID,91,VALID,0.733203,
2009-08-25, 00:43:04,VALID,1009.82,VALID,0,VALID,95.5202,VALID,0,VALID,24.2007,VALID,79,VALID,0.667969,
2009-08-25, 00:44:04,VALID,1009.82,VALID,0,VALID,95.4744,VALID,0,VALID,24.222,VALID,95,VALID,0.350781,
2009-08-25, 00:45:04,VALID,1009.83,VALID,0,VALID,95.4821,VALID,0,VALID,24.1812,VALID,43,VALID,0.435547,
2009-08-25, 00:46:04,VALID,1009.83,VALID,0,VALID,95.4897,VALID,0,VALID,24.1812,VALID,45,VALID,0.350391,
2009-08-25, 00:47:04,VALID,1009.81,VALID,0,VALID,95.5126,VALID,0,VALID,24.1617,VALID,45,VALID,0.327734,
2009-08-25, 00:48:04,VALID,1009.79,VALID,0,VALID,95.4821,VALID,0,VALID,24.1422,VALID,53,VALID,0.9125,
2009-08-25, 00:49:04,VALID,1009.8,VALID,0,VALID,95.4821,VALID,0,VALID,24.1422,VALID,65,VALID,0.641016,
2009-08-25, 00:50:04,VALID,1009.78,VALID,0,VALID,95.4516,VALID,0,VALID,24.1227,VALID,61,VALID,0.45,
2009-08-25, 00:51:04,VALID,1009.76,VALID,0,VALID,95.5049,VALID,0,VALID,24.1227,VALID,39,VALID,0.608203,
2009-08-25, 00:52:04,VALID,1009.71,VALID,0,VALID,95.4744,VALID,0,VALID,24.1032,VALID,40,VALID,0.384375,
2009-08-25, 00:53:04,VALID,1009.72,VALID,0,VALID,95.4744,VALID,0,VALID,24.1032,VALID,15,VALID,0.44375,
2009-08-25, 00:54:04,VALID,1009.66,VALID,0,VALID,95.4897,VALID,0,VALID,24.1245,VALID,15,VALID,0.578516,
2009-08-25, 00:55:04,VALID,1009.65,VALID,0,VALID,95.5354,VALID,0,VALID,24.1032,VALID,19,VALID,0.280078,
2009-08-25, 00:56:04,VALID,1009.64,VALID,0,VALID,95.6041,VALID,0,VALID,24.1051,VALID,19,VALID,0.386328,
2009-08-25, 00:57:04,VALID,1009.64,VALID,0,VALID,95.6269,VALID,0,VALID,24.0643,VALID,32,VALID,0.335547,
2009-08-25, 00:58:04,VALID,1009.61,VALID,0,VALID,95.6803,VALID,0,VALID,24.0448,VALID,32,VALID,0.542969,
2009-08-25, 00:59:04,VALID,1009.64,VALID,0,VALID,95.81,VALID,0,VALID,24.0058,VALID,58,VALID,0.662891,
2009-08-25, 01:00:04,VALID,1009.64,VALID,0,VALID,95.9244,VALID,0,VALID,23.9473,VALID,80,VALID,0.972656,
2009-08-25, 01:01:04,VALID,1009.66,VALID,0,VALID,96.0616,VALID,0,VALID,23.9278,VALID,66,VALID,0.754297,
2009-08-25, 01:02:04,VALID,1009.66,VALID,0,VALID,96.176,VALID,0,VALID,23.8889,VALID,65,VALID,0.983203,
2009-08-25, 01:03:04,VALID,1009.67,VALID,0,VALID,96.2446,VALID,0,VALID,23.8694,VALID,65,VALID,0.465625,
2009-08-25, 01:04:04,VALID,1009.66,VALID,0,VALID,96.3133,VALID,0,VALID,23.8694,VALID,60,VALID,0.472656,
2009-08-25, 01:05:04,VALID,1009.69,VALID,0,VALID,96.3666,VALID,0,VALID,23.8694,VALID,55,VALID,0.397656,
2009-08-25, 01:06:04,VALID,1009.66,VALID,0,VALID,96.4048,VALID,0,VALID,23.8499,VALID,55,VALID,0.277344,
2009-08-25, 01:07:04,VALID,1009.64,VALID,0,VALID,96.4429,VALID,0,VALID,23.8499,VALID,56,VALID,0.225391,
2009-08-25, 01:08:04,VALID,1009.59,VALID,0,VALID,96.4658,VALID,0,VALID,23.8499,VALID,55,VALID,0.237891,
2009-08-25, 01:09:04,VALID,1009.6,VALID,0,VALID,96.4734,VALID,0,VALID,23.8304,VALID,55,VALID,0.209375,
2009-08-25, 01:10:04,VALID,1009.55,VALID,0,VALID,96.5039,VALID,0,VALID,23.8304,VALID,55,VALID,0,
2009-08-25, 01:11:04,VALID,1009.53,VALID,0,VALID,96.5344,VALID,0,VALID,23.8304,VALID,55,VALID,0,
2009-08-25, 01:12:04,VALID,1009.51,VALID,0,VALID,96.542,VALID,0,VALID,23.8304,VALID,55,VALID,0.153516,
2009-08-25, 01:13:04,VALID,1009.48,VALID,0,VALID,96.5649,VALID,0,VALID,23.8109,VALID,56,VALID,0.366406,
2009-08-25, 01:14:04,VALID,1009.5,VALID,0,VALID,96.5878,VALID,0,VALID,23.772,VALID,56,VALID,0.398438,
2009-08-25, 01:15:04,VALID,1009.53,VALID,0,VALID,96.603,VALID,0,VALID,23.7525,VALID,55,VALID,0.398047,
2009-08-25, 01:16:04,VALID,1009.52,VALID,0,VALID,96.6107,VALID,0,VALID,23.7135,VALID,55,VALID,0.518359,
2009-08-25, 01:17:04,VALID,1009.54,VALID,0,VALID,96.6793,VALID,0,VALID,23.7153,VALID,56,VALID,0.453125,
2009-08-25, 01:18:04,VALID,1009.51,VALID,0,VALID,96.7403,VALID,0,VALID,23.694,VALID,63,VALID,0.668359,
2009-08-25, 01:19:04,VALID,1009.49,VALID,0,VALID,96.7861,VALID,0,VALID,23.694,VALID,65,VALID,0.373047,
2009-08-25, 01:20:04,VALID,1009.46,VALID,0,VALID,96.7861,VALID,0,VALID,23.694,VALID,66,VALID,0.530078,
2009-08-25, 01:21:04,VALID,1009.43,VALID,0,VALID,96.8013,VALID,0,VALID,23.694,VALID,65,VALID,0.198437,
2009-08-25, 01:22:04,VALID,1009.43,VALID,0,VALID,96.8013,VALID,0,VALID,23.7135,VALID,65,VALID,0.795313,
2009-08-25, 01:23:04,VALID,1009.4,VALID,0,VALID,96.8166,VALID,0,VALID,23.7348,VALID,65,VALID,0.205469,
2009-08-25, 01:24:04,VALID,1009.39,VALID,0,VALID,96.8013,VALID,0,VALID,23.7135,VALID,65,VALID,0,
2009-08-25, 01:25:04,VALID,1009.38,VALID,0,VALID,96.7556,VALID,0,VALID,23.694,VALID,65,VALID,0,
2009-08-25, 01:26:04,VALID,1009.4,VALID,0,VALID,96.7784,VALID,0,VALID,23.694,VALID,69,VALID,0,
2009-08-25, 01:27:04,VALID,1009.37,VALID,0,VALID,96.7937,VALID,0,VALID,23.655,VALID,64,VALID,0,
2009-08-25, 01:28:04,VALID,1009.39,VALID,0,VALID,96.8089,VALID,0,VALID,23.655,VALID,67,VALID,0.622266,
2009-08-25, 01:29:04,VALID,1009.38,VALID,0,VALID,96.8394,VALID,0,VALID,23.655,VALID,67,VALID,0.259375,
2009-08-25, 01:30:04,VALID,1009.36,VALID,0,VALID,96.8547,VALID,0,VALID,23.6568,VALID,66,VALID,0.625781,
2009-08-25, 01:31:04,VALID,1009.33,VALID,0,VALID,96.8623,VALID,0,VALID,23.6161,VALID,30,VALID,0.54375,
2009-08-25, 01:32:04,VALID,1009.34,VALID,0,VALID,96.8852,VALID,0,VALID,23.6161,VALID,57,VALID,0.433594,
2009-08-25, 01:33:04,VALID,1009.32,VALID,0,VALID,96.8776,VALID,0,VALID,23.5966,VALID,57,VALID,0.525391,
2009-08-25, 01:34:04,VALID,1009.3,VALID,0,VALID,96.9081,VALID,0,VALID,23.5984,VALID,57,VALID,0.150781,
2009-08-25, 01:35:04,VALID,1009.25,VALID,0,VALID,96.931,VALID,0,VALID,23.5984,VALID,41,VALID,0.307422,
2009-08-25, 01:36:04,VALID,1009.24,VALID,0,VALID,96.992,VALID,0,VALID,23.5558,VALID,41,VALID,0.0261719,
2009-08-25, 01:37:04,VALID,1009.23,VALID,0,VALID,96.992,VALID,0,VALID,23.5381,VALID,41,VALID,0.0449219,
2009-08-25, 01:38:04,VALID,1009.18,VALID,0,VALID,96.9996,VALID,0,VALID,23.5186,VALID,41,VALID,0.0367187,
2009-08-25, 01:39:04,VALID,1009.18,VALID,0,VALID,97.0453,VALID,0,VALID,23.5399,VALID,41,VALID,0,
2009-08-25, 01:40:04,VALID,1009.17,VALID,0,VALID,97.0682,VALID,0,VALID,23.5186,VALID,41,VALID,0,
2009-08-25, 01:41:04,VALID,1009.14,VALID,0,VALID,97.114,VALID,0,VALID,23.5186,VALID,41,VALID,0,
2009-08-25, 01:42:04,VALID,1009.14,VALID,0,VALID,97.1597,VALID,0,VALID,23.4992,VALID,41,VALID,0,
2009-08-25, 01:43:04,VALID,1009.15,VALID,0,VALID,97.1597,VALID,0,VALID,23.4797,VALID,41,VALID,0,
2009-08-25, 01:44:04,VALID,1009.16,VALID,0,VALID,97.1521,VALID,0,VALID,23.4407,VALID,45,VALID,0.286328,
2009-08-25, 01:45:04,VALID,1009.15,VALID,0,VALID,97.1445,VALID,0,VALID,23.4425,VALID,116,VALID,0.541406,
2009-08-25, 01:46:04,VALID,1009.17,VALID,0,VALID,97.1902,VALID,0,VALID,23.4212,VALID,116,VALID,0.439844,
2009-08-25, 01:47:04,VALID,1009.19,VALID,0,VALID,97.236,VALID,0,VALID,23.3823,VALID,116,VALID,0.427344,
2009-08-25, 01:48:04,VALID,1009.21,VALID,0,VALID,97.2207,VALID,0,VALID,23.3628,VALID,86,VALID,0.526563,
2009-08-25, 01:49:04,VALID,1009.21,VALID,0,VALID,97.2512,VALID,0,VALID,23.3628,VALID,53,VALID,0.527734,
2009-08-25, 01:50:04,VALID,1009.22,VALID,0,VALID,97.2741,VALID,0,VALID,23.3823,VALID,53,VALID,0.455469,
2009-08-25, 01:51:04,VALID,1009.21,VALID,0,VALID,97.3199,VALID,0,VALID,23.4035,VALID,49,VALID,0.517187,
2009-08-25, 01:52:04,VALID,1009.21,VALID,0,VALID,97.358,VALID,0.105969,VALID,23.3805,VALID,76,VALID,0.378125,
2009-08-25, 01:53:04,VALID,1009.22,VALID,0,VALID,97.3504,VALID,0,VALID,23.3805,VALID,59,VALID,0.297266,
2009-08-25, 01:54:04,VALID,1009.19,VALID,0,VALID,97.3504,VALID,0.105969,VALID,23.4212,VALID,52,VALID,0.140234,
2009-08-25, 01:55:04,VALID,1009.19,VALID,0,VALID,97.3732,VALID,0.105969,VALID,23.4,VALID,52,VALID,0.220313,
2009-08-25, 01:56:04,VALID,1009.2,VALID,0,VALID,97.3732,VALID,0,VALID,23.4212,VALID,52,VALID,0,
2009-08-25, 01:57:04,VALID,1009.19,VALID,0,VALID,97.3809,VALID,0.105969,VALID,23.4,VALID,52,VALID,0,
2009-08-25, 01:58:04,VALID,1009.22,VALID,0,VALID,97.3809,VALID,0,VALID,23.4,VALID,52,VALID,0,
2009-08-25, 01:59:04,VALID,1009.22,VALID,0,VALID,97.3732,VALID,0,VALID,23.4,VALID,52,VALID,0.0945313,
2009-08-25, 02:00:04,VALID,1009.24,VALID,0,VALID,97.3732,VALID,0,VALID,23.4,VALID,52,VALID,0.228906,
2009-08-25, 02:01:04,VALID,1009.23,VALID,0,VALID,97.3504,VALID,0.105969,VALID,23.4194,VALID,56,VALID,0.534375,
2009-08-25, 02:02:04,VALID,1009.19,VALID,0,VALID,97.3732,VALID,0.105969,VALID,23.4194,VALID,58,VALID,0.372266,
2009-08-25, 02:03:04,VALID,1009.18,VALID,0,VALID,97.3809,VALID,0.105969,VALID,23.4194,VALID,83,VALID,0.419141,
2009-08-25, 02:04:04,VALID,1009.16,VALID,0,VALID,97.358,VALID,0.105969,VALID,23.4407,VALID,82,VALID,0.725391,
2009-08-25, 02:05:04,VALID,1009.14,VALID,0,VALID,97.3504,VALID,0,VALID,23.4407,VALID,82,VALID,0.475391,
2009-08-25, 02:06:04,VALID,1009.12,VALID,0,VALID,97.3427,VALID,0,VALID,23.4389,VALID,81,VALID,0.389453,
2009-08-25, 02:07:04,VALID,1009.1,VALID,0,VALID,97.3351,VALID,0.105969,VALID,23.4584,VALID,81,VALID,0.0933594,
2009-08-25, 02:08:04,VALID,1009.11,VALID,0,VALID,97.3122,VALID,0.105969,VALID,23.4177,VALID,80,VALID,0.280859,
2009-08-25, 02:09:04,VALID,1009.1,VALID,0,VALID,97.3122,VALID,0.105969,VALID,23.4584,VALID,80,VALID,0.307031,
2009-08-25, 02:10:04,VALID,1009.11,VALID,0,VALID,97.297,VALID,0,VALID,23.4584,VALID,80,VALID,0,
2009-08-25, 02:11:04,VALID,1009.07,VALID,0,VALID,97.2741,VALID,0.105969,VALID,23.4584,VALID,80,VALID,0,
2009-08-25, 02:12:04,VALID,1009.07,VALID,0,VALID,97.2284,VALID,0.105969,VALID,23.4584,VALID,80,VALID,0,
2009-08-25, 02:13:04,VALID,1009.07,VALID,0,VALID,97.236,VALID,0.105969,VALID,23.4584,VALID,80,VALID,0,
2009-08-25, 02:14:04,VALID,1009.08,VALID,0,VALID,97.2131,VALID,0.105969,VALID,23.4584,VALID,80,VALID,0,
2009-08-25, 02:15:04,VALID,1009.07,VALID,0,VALID,97.2055,VALID,0.105969,VALID,23.4602,VALID,80,VALID,0,
2009-08-25, 02:16:04,VALID,1009.09,VALID,0,VALID,97.1826,VALID,0,VALID,23.4797,VALID,80,VALID,0,
2009-08-25, 02:17:04,VALID,1009.08,VALID,0,VALID,97.1826,VALID,0.105969,VALID,23.4389,VALID,80,VALID,0,
2009-08-25, 02:18:04,VALID,1009.07,VALID,0,VALID,97.1826,VALID,0.105969,VALID,23.4584,VALID,107,VALID,0.456641,
2009-08-25, 02:19:04,VALID,1009.08,VALID,0,VALID,97.1979,VALID,0.105969,VALID,23.4584,VALID,91,VALID,0.153516,
2009-08-25, 02:20:04,VALID,1009.06,VALID,0,VALID,97.1826,VALID,0,VALID,23.4797,VALID,91,VALID,0.235156,
2009-08-25, 02:21:04,VALID,1009.03,VALID,0,VALID,97.1902,VALID,0,VALID,23.4584,VALID,91,VALID,0.446094,
2009-08-25, 02:22:04,VALID,1009.04,VALID,0,VALID,97.2055,VALID,0.105969,VALID,23.4797,VALID,92,VALID,0.217187,
2009-08-25, 02:23:04,VALID,1009.04,VALID,0,VALID,97.1826,VALID,0.105969,VALID,23.4584,VALID,92,VALID,0.486328,
2009-08-25, 02:24:04,VALID,1009.04,VALID,0,VALID,97.175,VALID,0.105969,VALID,23.4992,VALID,94,VALID,0.516406,
2009-08-25, 02:25:04,VALID,1009.04,VALID,0,VALID,97.1521,VALID,0.105969,VALID,23.5186,VALID,90,VALID,0.255859,
2009-08-25, 02:26:04,VALID,1009.04,VALID,0,VALID,97.1445,VALID,0.105969,VALID,23.4974,VALID,52,VALID,0.758984,
2009-08-25, 02:27:04,VALID,1009.07,VALID,0,VALID,97.1292,VALID,0,VALID,23.4956,VALID,58,VALID,0.369531,
2009-08-25, 02:28:04,VALID,1009.05,VALID,0,VALID,97.0911,VALID,0,VALID,23.5169,VALID,62,VALID,0.536328,
2009-08-25, 02:29:04,VALID,1009.02,VALID,0,VALID,97.0682,VALID,0,VALID,23.5381,VALID,63,VALID,0.742188,
2009-08-25, 02:30:04,VALID,1009.02,VALID,0,VALID,97.0377,VALID,0.105969,VALID,23.5169,VALID,73,VALID,0.425391,
2009-08-25, 02:31:04,VALID,1009.04,VALID,0,VALID,97.0225,VALID,0,VALID,23.5169,VALID,72,VALID,0.498047,
2009-08-25, 02:32:04,VALID,1009.04,VALID,0,VALID,96.9843,VALID,0.105969,VALID,23.5169,VALID,72,VALID,0.0617188,
2009-08-25, 02:33:04,VALID,1009.04,VALID,0,VALID,96.9843,VALID,0.105969,VALID,23.5169,VALID,72,VALID,0.337109,
2009-08-25, 02:34:04,VALID,1009.04,VALID,0,VALID,96.9691,VALID,0.105969,VALID,23.5169,VALID,72,VALID,0.169922,
2009-08-25, 02:35:04,VALID,1009.03,VALID,0,VALID,96.9615,VALID,0.105969,VALID,23.5186,VALID,72,VALID,0.153906,
2009-08-25, 02:36:04,VALID,1009.03,VALID,0,VALID,96.9615,VALID,0.105969,VALID,23.4974,VALID,72,VALID,0.0429688,
2009-08-25, 02:37:04,VALID,1009.03,VALID,0,VALID,97.0072,VALID,0.105969,VALID,23.5381,VALID,107,VALID,1.04727,
2009-08-25, 02:38:04,VALID,1009.08,VALID,0,VALID,97.0072,VALID,0.105969,VALID,23.5169,VALID,107,VALID,0.815234,
2009-08-25, 02:39:04,VALID,1009.03,VALID,0,VALID,97.0225,VALID,0.105969,VALID,23.5169,VALID,116,VALID,0.523828,
2009-08-25, 02:40:04,VALID,1009.02,VALID,0,VALID,97.0148,VALID,0.105969,VALID,23.5169,VALID,88,VALID,0.58125,
2009-08-25, 02:41:04,VALID,1009,VALID,0,VALID,97.0148,VALID,0,VALID,23.5169,VALID,90,VALID,0.671094,
2009-08-25, 02:42:04,VALID,1009.03,VALID,0,VALID,96.9996,VALID,0.105969,VALID,23.5381,VALID,95,VALID,0.805078,
2009-08-25, 02:43:04,VALID,1009.02,VALID,0,VALID,96.9996,VALID,0.105969,VALID,23.5169,VALID,99,VALID,0.646484,
2009-08-25, 02:44:04,VALID,1009,VALID,0,VALID,97.0072,VALID,0.105969,VALID,23.4974,VALID,102,VALID,0.862891,
2009-08-25, 02:45:04,VALID,1008.99,VALID,0,VALID,97.0148,VALID,0.105969,VALID,23.4974,VALID,116,VALID,1.12773,
2009-08-25, 02:46:04,VALID,1008.98,VALID,0,VALID,96.9996,VALID,0.105969,VALID,23.4974,VALID,120,VALID,0.564453,
2009-08-25, 02:47:04,VALID,1008.97,VALID,0,VALID,97.0072,VALID,0.105969,VALID,23.5169,VALID,120,VALID,0.483203,
2009-08-25, 02:48:04,VALID,1008.96,VALID,0,VALID,96.9767,VALID,0.105969,VALID,23.4974,VALID,121,VALID,0.729297,
2009-08-25, 02:49:04,VALID,1008.97,VALID,0,VALID,97.0072,VALID,0.105969,VALID,23.4584,VALID,113,VALID,0.780469,
2009-08-25, 02:50:04,VALID,1008.96,VALID,0,VALID,97.0301,VALID,0.105969,VALID,23.4389,VALID,123,VALID,0.598437,
2009-08-25, 02:51:04,VALID,1008.96,VALID,0,VALID,97.0377,VALID,0.105969,VALID,23.4389,VALID,137,VALID,0.745703,
2009-08-25, 02:52:04,VALID,1008.96,VALID,0,VALID,97.0606,VALID,0,VALID,23.4407,VALID,112,VALID,0.0425781,
2009-08-25, 02:53:04,VALID,1008.97,VALID,0,VALID,97.0911,VALID,0,VALID,23.4212,VALID,112,VALID,0.0167969,
2009-08-25, 02:54:04,VALID,1008.98,VALID,0,VALID,97.114,VALID,0,VALID,23.4212,VALID,112,VALID,0.317578,
2009-08-25, 02:55:04,VALID,1008.95,VALID,0,VALID,97.1368,VALID,0,VALID,23.3823,VALID,112,VALID,0,
2009-08-25, 02:56:04,VALID,1008.98,VALID,0,VALID,97.1521,VALID,0,VALID,23.3823,VALID,112,VALID,0.395703,
2009-08-25, 02:57:04,VALID,1009.01,VALID,0,VALID,97.1902,VALID,0,VALID,23.3823,VALID,149,VALID,0.337891,
2009-08-25, 02:58:04,VALID,1009.04,VALID,0,VALID,97.2055,VALID,0,VALID,23.3628,VALID,165,VALID,0.764453,
2009-08-25, 02:59:04,VALID,1009.02,VALID,0,VALID,97.236,VALID,0,VALID,23.3628,VALID,165,VALID,0.361328,
2009-08-25, 03:00:04,VALID,1008.99,VALID,0,VALID,97.2512,VALID,0,VALID,23.3628,VALID,152,VALID,0.251953,
2009-08-25, 03:01:04,VALID,1008.99,VALID,0,VALID,97.2817,VALID,0,VALID,23.3645,VALID,116,VALID,0.755859,
2009-08-25, 03:02:04,VALID,1008.99,VALID,0,VALID,97.3046,VALID,0,VALID,23.3628,VALID,62,VALID,0.953516,
2009-08-25, 03:03:04,VALID,1008.97,VALID,0,VALID,97.3199,VALID,0,VALID,23.3823,VALID,68,VALID,0.665234,
2009-08-25, 03:04:04,VALID,1008.98,VALID,0,VALID,97.3732,VALID,0,VALID,23.4017,VALID,61,VALID,0.421484,
2009-08-25, 03:05:04,VALID,1008.99,VALID,0,VALID,97.419,VALID,0,VALID,23.4017,VALID,75,VALID,0.426953,
2009-08-25, 03:06:04,VALID,1008.99,VALID,0,VALID,97.4495,VALID,0,VALID,23.4017,VALID,125,VALID,0.603516,
2009-08-25, 03:07:04,VALID,1009,VALID,0,VALID,97.4495,VALID,0,VALID,23.4,VALID,144,VALID,0.481641,
2009-08-25, 03:08:04,VALID,1009.02,VALID,0,VALID,97.4571,VALID,0.105969,VALID,23.4,VALID,178,VALID,0.742969,
2009-08-25, 03:09:04,VALID,1008.99,VALID,0,VALID,97.4495,VALID,0.105969,VALID,23.3805,VALID,161,VALID,0.456641,
2009-08-25, 03:10:04,VALID,1008.97,VALID,0,VALID,97.4266,VALID,0.105969,VALID,23.3805,VALID,161,VALID,0.0410156,
2009-08-25, 03:11:04,VALID,1008.97,VALID,0,VALID,97.4419,VALID,0.105969,VALID,23.3805,VALID,161,VALID,0,
2009-08-25, 03:12:04,VALID,1008.98,VALID,0,VALID,97.4419,VALID,0,VALID,23.3805,VALID,161,VALID,0.272656,
2009-08-25, 03:13:04,VALID,1009.01,VALID,0,VALID,97.48,VALID,0.105969,VALID,23.4212,VALID,161,VALID,0.317187,
2009-08-25, 03:14:04,VALID,1009.02,VALID,0,VALID,97.5105,VALID,0,VALID,23.4,VALID,161,VALID,0.260547,
2009-08-25, 03:15:04,VALID,1009.01,VALID,0,VALID,97.5105,VALID,0,VALID,23.4,VALID,161,VALID,0.544922,
2009-08-25, 03:16:04,VALID,1008.99,VALID,0,VALID,97.5258,VALID,0.105969,VALID,23.4194,VALID,193,VALID,0.566406,
2009-08-25, 03:17:04,VALID,1009,VALID,0,VALID,97.5486,VALID,0.105969,VALID,23.4389,VALID,192,VALID,0.112891,
2009-08-25, 03:18:04,VALID,1009.01,VALID,0,VALID,97.5563,VALID,0.105969,VALID,23.4194,VALID,192,VALID,0.249219,
2009-08-25, 03:19:04,VALID,1009.01,VALID,0,VALID,97.541,VALID,0.105969,VALID,23.4584,VALID,189,VALID,0.284766,
2009-08-25, 03:20:04,VALID,1009.02,VALID,0,VALID,97.5563,VALID,0.105969,VALID,23.4797,VALID,189,VALID,0,
2009-08-25, 03:21:04,VALID,1009,VALID,0,VALID,97.5791,VALID,0.105969,VALID,23.4992,VALID,189,VALID,0,
2009-08-25, 03:22:04,VALID,1009.02,VALID,0,VALID,97.5791,VALID,0,VALID,23.4797,VALID,189,VALID,0,
2009-08-25, 03:23:04,VALID,1009.03,VALID,0,VALID,97.5639,VALID,0,VALID,23.5009,VALID,189,VALID,0,
2009-08-25, 03:24:04,VALID,1009.05,VALID,0,VALID,97.5486,VALID,0,VALID,23.5204,VALID,189,VALID,0.321875,
2009-08-25, 03:25:04,VALID,1009.07,VALID,0,VALID,97.541,VALID,0,VALID,23.4992,VALID,189,VALID,0.225,
2009-08-25, 03:26:04,VALID,1009.06,VALID,0,VALID,97.5334,VALID,0,VALID,23.5186,VALID,189,VALID,0,
2009-08-25, 03:27:04,VALID,1009.05,VALID,0,VALID,97.5258,VALID,0,VALID,23.5399,VALID,189,VALID,0,
2009-08-25, 03:28:04,VALID,1009.08,VALID,0,VALID,97.5105,VALID,0,VALID,23.5399,VALID,189,VALID,0,
2009-08-25, 03:29:04,VALID,1009.09,VALID,0,VALID,97.5029,VALID,0,VALID,23.5186,VALID,189,VALID,0,
2009-08-25, 03:30:04,VALID,1009.08,VALID,0,VALID,97.4876,VALID,0,VALID,23.5381,VALID,189,VALID,0.117188,
2009-08-25, 03:31:04,VALID,1009.1,VALID,0,VALID,97.5029,VALID,0,VALID,23.5381,VALID,189,VALID,0.119531,
2009-08-25, 03:32:04,VALID,1009.11,VALID,0,VALID,97.4724,VALID,0,VALID,23.5186,VALID,191,VALID,0.381641,
2009-08-25, 03:33:04,VALID,1009.12,VALID,0,VALID,97.48,VALID,0,VALID,23.5576,VALID,230,VALID,0.250391,
2009-08-25, 03:34:04,VALID,1009.13,VALID,0,VALID,97.48,VALID,0,VALID,23.5984,VALID,230,VALID,0.0410156,
2009-08-25, 03:35:04,VALID,1009.17,VALID,0,VALID,97.4724,VALID,0,VALID,23.6179,VALID,230,VALID,0.0578125,
2009-08-25, 03:36:04,VALID,1009.16,VALID,0,VALID,97.4495,VALID,0,VALID,23.6161,VALID,222,VALID,0.282813,
2009-08-25, 03:37:04,VALID,1009.18,VALID,0,VALID,97.4037,VALID,0,VALID,23.6161,VALID,222,VALID,0.534766,
2009-08-25, 03:38:04,VALID,1009.19,VALID,0,VALID,97.3656,VALID,0,VALID,23.6568,VALID,222,VALID,0.345703,
2009-08-25, 03:39:04,VALID,1009.19,VALID,0,VALID,97.3275,VALID,0,VALID,23.6356,VALID,222,VALID,0.313672,
2009-08-25, 03:40:04,VALID,1009.21,VALID,0,VALID,97.2817,VALID,0,VALID,23.655,VALID,222,VALID,0,
2009-08-25, 03:41:04,VALID,1009.19,VALID,0,VALID,97.236,VALID,0,VALID,23.655,VALID,222,VALID,0,
2009-08-25, 03:42:04,VALID,1009.17,VALID,0,VALID,97.1674,VALID,0,VALID,23.6745,VALID,222,VALID,0,
2009-08-25, 03:43:04,VALID,1009.16,VALID,0,VALID,97.114,VALID,0,VALID,23.6745,VALID,222,VALID,0,
2009-08-25, 03:44:04,VALID,1009.17,VALID,0,VALID,97.0758,VALID,0,VALID,23.6958,VALID,222,VALID,0,